Location: Hohe Wand Kleine Kanzel
(47.8330°N, 16.0170°E)
Time: 12:26:39
(UTC+02:00)

SR - Visible Passes

Search period start: 03 August 2021 00:00
Search period end: 13 August 2021 00:00
Orbit: 577 x 877 km, 66.7° (Epoch: 02 August)

Date Brightness Start Highest point End Pass type
(mag) Time Alt. Az. Time Alt. Az. Time Alt. Az.
04 Aug ? 05:02:43 10° SSE 05:06:40 19° ESE 05:10:30 10° ENE visible
07 Aug ? 04:15:32 10° SSE 04:19:17 18° ESE 04:22:55 10° ENE visible
08 Aug ? 05:05:24 10° SSW 05:11:01 55° ESE 05:16:19 10° NE visible
09 Aug ? 04:16:26 10° S 04:21:22 30° ESE 04:26:07 10° NE visible
10 Aug ? 03:28:24 10° SE 03:31:54 17° ESE 03:35:19 10° ENE visible
11 Aug ? 04:18:13 11° S 04:23:36 51° ESE 04:28:50 10° NE visible
12 Aug ? 03:30:08 14° SSE 03:33:59 29° ESE 03:38:36 10° NE visible
12 Aug ? 05:10:13 10° SW 05:15:50 57° NW 05:21:05 10° NNE visible
